Snowfall_Accumulation
0.0 0.0 0.0 0.0 0.0 0.0 0.0 0.0 0.0 0.0 0.0 0.0 0.0 0.0 0.0 0.0 0.0 0.0 0.0 0.0 0.0 0.0 0.0 0.0 0.0 0.0 0.0 0.0 0.0 0.0 0.0 0.0 0.0 0.0 0.0 0.0 0.0 0.0 0.0 0.0 0.0 0.0 0.0 0.0
0.0 0.0 0.0 0.0 0.0 0.0 0.0 0.0 0.0 0.0 0.0 0.0 0.0 0.0 0.0 0.0 0.0 0.0 0.0 0.0 0.0 0.0 0.0 0.0 0.0 0.0 0.0 0.0 0.0 0.0 0.0 0.0 0.0 0.0 0.0 0.0 0.0 0.0 0.0 0.0 0.0 0.0 0.0 0.0
0.0 0.0 0.0 0.0 0.0 0.0 0.0 0.0 0.0 0.0 0.0 0.0 0.0 0.0 0.0 0.0 0.0 0.0 0.0 0.0 0.0 0.0 0.0 0.0 0.0 0.0 0.0 0.0 0.0 0.0 0.0 0.0 0.0 0.0 0.0 0.0 0.0 0.0 0.0 0.0 0.0 0.0 0.0 0.0
0.0 0.0 0.0 0.0 0.0 0.0 0.0 0.0 0.0 0.0 0.0 0.0 0.0 0.0 0.0 0.0 0.0 0.0 0.0 0.0 0.0 0.0 0.0 0.0 0.0 0.0 0.0 0.0 0.0 0.0 0.0 0.0 0.0 0.0 0.0 0.0 0.0 0.0 0.0 0.0 0.0 0.0 0.0 0.0
0.0 0.0 0.0 0.0 0.0 0.0 0.0 0.0 0.0 0.0 0.0 0.0 0.0 0.0 0.0 0.0 0.0 0.0 0.0 0.0 0.0 0.0 0.0 0.0 0.0 0.0 0.0 0.0 0.0 0.0 0.0 0.0 0.0 0.0 0.0 0.0 0.0 0.0 0.0 0.0 0.0 0.0 0.0 0.0
0.0 0.0 0.0 0.0 0.0 0.0 0.0 0.0 0.0 0.0 0.0 0.9 0.0 0.0 0.0 0.0 0.0 0.0 0.0 0.0 0.0 0.0 0.0 0.0 0.0 0.0 0.0 0.0 0.0 0.0 0.0 0.0 0.0 0.0 0.0 0.0 0.0 0.0 0.0 0.0 0.0 0.0 0.0 0.0
0.0 0.0 0.1 0.0 0.8 0.0 0.0 0.1 1.5 0.9 0.7 0.0 0.0 0.0 0.0 0.0 0.0 0.0 0.0 0.0 0.0 0.0 0.0 0.0 0.0 0.0 0.0 0.0 0.0 0.0 0.0 0.0 0.0 0.0 0.0 0.0 0.0 0.0 0.0 0.0 0.0 0.0 0.0 0.0
0.6 0.9 1.7 1.7 1.7 0.9 0.1 0.1 1.8 2.7 0.4 0.4 0.1 0.4 0.0 0.0 0.0 0.0 0.0 0.0 0.0 0.0 0.0 0.0 0.0 0.0 0.0 0.0 0.0 0.0 0.0 0.0 0.0 0.0 0.0 0.0 0.0 0.0 0.0 0.0 0.0 0.0 0.0 0.0
1.2 0.6 1.0 1.5 0.7 0.0 0.2 0.7 0.0 2.6 1.1 1.1 0.1 0.0 0.0 0.0 0.0 0.0 0.0 0.0 0.0 0.0 0.0 0.0 0.0 0.0 0.0 0.0 0.0 0.0 0.0 0.0 0.0 0.0 0.0 0.0 0.0 0.0 0.0 0.0 0.0 0.0 0.0 0.0
0.1 0.5 0.1 0.3 0.0 0.0 0.1 0.1 3.4 5.6 7.7 3.2 0.0 0.1 2.5 0.0 0.0 0.0 0.0 0.0 0.0 0.0 0.0 0.0 0.0 0.0 0.0 0.0 0.0 0.0 0.0 0.0 0.0 0.0 0.0 0.0 0.0 0.0 0.0 0.0 0.0 0.0 0.0 0.0
0.0 1.0 0.8 0.4 1.9 1.2 0.4 1.2 0.3 1.4 2.5 5.2 1.4 2.1 0.0 0.0 0.0 0.0 0.0 0.0 0.0 0.2 0.0 0.0 0.0 0.0 0.0 0.0 0.0 0.0 0.0 0.0 0.0 0.0 0.0 0.0 0.0 0.0 0.0 0.0 0.0 0.0 0.0 0.0
1.1 1.8 1.3 0.8 2.0 1.2 0.8 0.5 0.9 10.1 4.6 2.8 4.5 2.0 0.0 0.0 0.0 0.0 0.0 2.1 0.4 0.0 0.0 0.0 0.0 0.0 0.0 0.0 0.0 0.0 0.0 0.0 0.0 0.0 0.0 0.0 0.0 0.0 0.0 0.0 0.0 0.0 0.0 0.0
2.2 5.0 3.9 1.3 1.1 0.9 0.9 1.8 1.9 3.0 2.6 4.8 9.2 4.7 0.0 0.0 0.0 0.0 0.4 0.7 0.1 0.0 0.0 0.0 0.0 0.0 0.0 0.0 0.0 0.0 0.0 0.0 0.0 0.0 0.0 0.0 0.0 0.0 0.0 0.1 0.1 0.0 0.0 0.0
0.7 5.5 7.2 5.5 7.4 4.6 3.7 1.2 1.8 6.3 19.1 9.1 4.3 1.6 0.3 3.2 1.8 0.0 0.5 0.5 0.2 0.0 0.1 0.0 0.0 0.0 0.0 0.0 0.0 0.0 0.0 0.0 0.0 0.0 0.1 0.1 0.2 0.3 0.2 0.2 0.2 0.0 0.0 0.0
3.4 13.2 6.7 2.3 0.5 0.6 1.9 2.1 0.6 5.1 2.7 14.5 2.6 6.4 5.3 2.8 1.0 1.2 0.7 0.4 0.4 0.2 0.0 0.0 0.0 0.0 0.0 0.0 0.1 0.2 0.4 0.3 0.4 0.5 0.5 1.0 0.9 0.8 0.8 0.8 0.9 0.8 0.4 1.3
1.6 9.1 6.9 9.2 0.4 2.1 4.2 1.8 0.5 2.1 3.5 5.7 4.7 6.2 4.1 1.7 1.3 0.7 0.6 0.6 0.4 0.3 0.3 0.0 0.0 0.0 0.1 0.2 0.5 0.8 1.2 1.8 1.7 1.5 2.3 1.9 2.4 2.4 2.5 2.3 3.7 1.2 2.2 2.8
3.2 6.1 12.6 10.9 1.0 4.7 15.5 2.4 0.2 2.9 3.7 4.8 10.2 6.5 4.5 2.8 0.8 0.2 0.4 0.2 0.1 1.4 0.4 0.5 0.9 1.3 1.5 1.5 1.8 1.7 2.9 2.6 2.5 2.8 4.0 5.3 3.6 3.8 4.7 3.8 2.7 3.6 3.9 3.0
3.6 8.1 15.0 17.2 10.4 26.8 2.9 1.2 0.4 3.1 3.5 3.9 4.3 6.5 8.9 4.5 1.4 0.9 1.0 1.1 3.7 4.6 2.4 3.9 2.8 2.5 3.4 3.7 2.8 3.3 3.5 3.2 3.0 4.1 4.6 4.4 3.7 4.6 3.7 3.7 4.5 5.9 4.4 5.0
0.4 3.4 23.8 21.7 11.8 4.5 4.3 7.1 6.7 5.3 4.1 3.0 3.3 4.9 8.0 7.0 1.9 2.1 2.6 3.3 4.8 8.0 9.3 5.6 6.4 5.2 5.8 4.6 5.1 4.1 3.9 3.1 2.9 3.4 4.1 3.9 2.4 3.0 2.3 2.2 3.1 5.5 5.7 8.4
0.0 1.5 17.9 23.1 23.9 16.2 7.9 2.5 2.5 4.3 7.1 3.2 2.2 4.0 6.6 7.0 8.0 9.4 5.3 4.5 4.3 5.9 9.3 11.6 9.6 6.4 5.3 5.3 5.8 7.3 8.1 5.2 5.4 7.0 5.7 4.7 5.4 3.8 2.6 3.0 3.9 7.3 5.0 6.6
5.8 10.9 20.8 16.9 27.0 8.5 3.4 4.1 3.7 6.9 11.2 4.2 2.9 4.2 6.5 8.9 6.7 12.5 9.9 9.4 8.2 7.9 7.4 6.9 9.2 10.4 6.5 5.7 5.5 5.2 7.6 9.4 12.9 12.6 13.4 11.0 9.2 7.6 8.9 13.5 7.9 12.1 12.4 11.4
4.0 18.1 21.9 20.9 27.6 18.3 2.4 3.8 4.4 6.4 4.1 2.5 2.7 4.8 4.2 12.2 15.1 14.6 11.6 9.0 6.5 5.5 4.3 2.8 2.6 4.6 7.7 7.1 6.1 5.1 5.0 7.6 6.8 8.5 8.7 9.3 10.4 10.8 11.5 11.3 14.0 16.0 17.4 17.7
13.8 11.5 13.8 12.5 9.7 4.4 3.4 4.0 3.8 2.7 1.9 2.0 2.0 6.6 8.0 10.7 14.8 15.4 12.2 8.8 6.2 4.3 2.7 1.8 1.2 1.6 2.7 3.1 4.4 5.6 6.7 5.3 5.0 4.8 5.3 7.1 7.3 7.9 8.8 9.3 9.9 9.7 9.0 10.2
5.9 3.1 8.0 5.4 3.4 1.7 1.9 1.8 2.1 1.8 2.1 2.3 2.5 3.8 13.3 13.9 14.3 12.4 8.5 6.3 4.7 3.2 2.7 1.5 1.3 1.5 1.5 1.5 2.3 3.0 4.0 4.5 4.8 4.5 4.4 4.5 4.9 6.0 6.5 7.1 8.2 8.6 8.6 8.1
3.4 3.2 4.4 3.3 2.2 0.8 1.0 1.3 1.6 2.7 1.5 3.1 4.5 6.2 6.6 6.1 6.1 5.4 4.7 3.6 2.4 2.3 1.5 0.7 0.7 0.5 0.8 0.5 0.8 1.4 1.5 1.6 1.9 1.9 2.4 2.8 3.1 3.3 3.6 4.6 4.5 4.5 5.6 6.8
8.1 5.7 5.9 7.4 6.9 3.0 2.4 2.1 1.7 4.9 5.8 4.4 3.5 5.4 5.8 3.9 4.4 3.6 4.2 3.6 2.5 2.8 1.7 0.9 0.6 0.6 0.8 0.3 0.5 0.4 0.2 0.3 1.1 0.8 4.0 3.9 1.5 3.1 3.0 5.6 7.1 7.4 7.2 4.9